Location: Unspecified
(51.9356°N, 0.0000°E)
Time: 08:12:00
(UTC+00:00)

PEGASUS DEB - Visible Passes

Search period start: 04 April 2026 00:00
Search period end: 14 April 2026 00:00
Orbit: 553 x 883 km, 81.8° (Epoch: 27 March)

Date Brightness Start Highest point End Pass type
(mag) Time Alt. Az. Time Alt. Az. Time Alt. Az.
4 Apr ? 19:19:06 10° SE 19:23:43 26° E 19:28:11 10° NNE visible
4 Apr ? 20:57:41 10° SSW 21:03:25 62° WNW 21:08:51 10° N visible
4 Apr ? 22:41:50 10° W 22:44:32 13° NW 22:47:11 10° NNW visible
5 Apr ? 20:06:13 10° S 20:11:55 66° E 20:17:19 10° NNE visible
5 Apr ? 21:47:41 10° WSW 21:52:23 25° WNW 21:56:51 10° N visible
6 Apr ? 19:15:42 10° SSE 19:20:40 31° E 19:25:23 10° NNE visible
6 Apr ? 20:54:58 10° SSW 21:00:31 50° WNW 21:05:45 10° N visible
6 Apr ? 22:40:32 10° WNW 22:41:49 11° NW 22:43:04 10° NW visible
7 Apr ? 20:03:13 10° S 20:08:56 81° E 20:14:17 10° NNE visible
7 Apr ? 21:45:23 10° WSW 21:49:33 21° WNW 21:53:32 10° NNW visible
8 Apr ? 20:52:19 10° SW 20:57:36 40° WNW 21:02:35 10° N visible
9 Apr ? 20:00:15 10° SSW 20:05:56 83° WNW 20:11:13 10° N visible
9 Apr ? 21:43:12 10° W 21:46:43 17° WNW 21:50:05 10° NNW visible
10 Apr ? 04:39:05 10° NE 04:40:27 11° NE 04:41:47 10° ENE visible
10 Apr ? 20:49:42 10° SW 20:54:40 32° WNW 20:59:21 10° N visible
11 Apr ? 19:57:21 10° SSW 20:02:54 67° WNW 20:08:03 10° N visible
11 Apr ? 21:41:14 10° W 21:43:51 14° NW 21:46:25 10° NNW visible
12 Apr ? 20:47:10 10° WSW 20:51:43 26° WNW 20:56:00 10° N visible
13 Apr ? 19:54:29 10° SSW 19:59:52 53° WNW 20:04:50 10° N visible
13 Apr ? 21:39:51 10° WNW 21:40:59 11° NW 21:42:06 10° NW visible
